Weather in Sambir

Ukraine / Lviv District     49°31′18″N   23°11′56″E
temp.,
°C
wind,
m/s
gust,
m/s
humid.,
%
clouds,
%
prec.,
mm/h
press.,
hPa
HPBL,
m
17 october, sun
sun1700:00+3w229014 0.0 102417
03:00+3wsw22907 0.0 102316
06:00+4w228053 0.0 102219
09:00+5wsw227268 0.0 102343
12:00+9wnw225412 0.0 10221109
15:00+11nw23485 0.0 10211323
18:00+8nnw22625 0.0 102123
21:00+5sw117198 0.0 102210
18 october, mon
mon1800:00+4sw227496 0.0 102313
03:00+5sw2273100 0.0 102331
06:00+4sw3375100 0.0 102346
09:00+7wsw2669100 0.0 1023214
12:00+10wnw6762100 0.0 10241077
15:00+8w51074100 0.0 1024718
18:00+7w5982100 0.1 1025501
21:00+8wsw4882100 0.1 1026431
19 october, tue
tue1900:00+8w61283100 0.2 1025660
03:00+9w51184100 0.5 1026635
06:00+8wnw4885100 0.1 1027487
09:00+8w2587100 0.3 1028306
12:00+9w2482100 0.1 1028413
15:00+11wsw2472100 0.1 1027567
18:00+10sse1178100 0.0 102711
21:00+8sse228515 0.0 102735
20 october, wed
wed2000:00+6s228730 0.0 102724
03:00+6s36817 0.0 1026104
06:00+8ssw4871100 0.0 1024169
09:00+10sw51364100 0.0 1023447
12:00+14sw71453100 0.0 1022704
15:00+13sw61352100 0.0 1020625
18:00+13sw81754100 0.0 1018524
21:00+12sw91952100 0.0 1017560
21 october, thu
thu2100:00+13sw102047100 0.0 1015627
03:00+13sw9194796 0.0 1013664
06:00+13sw81850100 0.0 1012701
09:00+13sw91950100 0.0 1011828
12:00+15sw101954100 0.0 10111083
15:00+15sw9145987 0.0 1011546
18:00+13ssw91664100 0.0 1011497
21:00+13sw7146888 0.0 1011541